Location: Brunsbüttel
(52.3892°N, 10.6138°E)
Time: 06:57:27
(UTC+00:00)

SL-24 DEB - Pass Details

Date: 19 May 2025
Orbit: 638 x 665 km, 92.0° (Epoch: 22 June)

Event Time Altitude Azimuth Distance (km) Brightness Sun altitude
Exits shadow 21:14:58 14° 186° (S) 1,785 5.9 -13.1°
Maximum altitude 21:18:46 66° 267° (W) 720 4.5 -13.4°
Drops below altitude 10° 21:23:20 10° 350° (N) 2,084 8.0 -13.7°
Sets 21:25:36 0° 354° (N) 3,005 9.0 -13.9°
